Location: Arbon
(43.0005°N, 0.7472°E)
Time: 10:34:11
(UTC+00:00)

Vanguard 2 Rocket - Pass Details

Date: 30 November 2020
Orbit: 554 x 3325 km, 32.9° (Epoch: 21 January)

Event Time Altitude Azimuth Distance (km) Brightness Sun altitude
Rises 09:43:13 0° 259° (W) 7,279 11.3 19.4°
Reaches altitude 10° 09:48:13 10° 256° (WSW) 6,284 11.1 19.8°
Maximum altitude 10:07:34 59° 184° (S) 3,138 10.5 21.4°
Drops below altitude 10° 10:20:54 10° 110° (ESE) 4,508 11.1 22.4°
Sets 10:23:50 0° 106° (ESE) 5,193 11.3 22.6°
